USA 170

Last updated on Sun Oct 06 2024 00:02:38 GMT+0000 (Coordinated Universal Time)

1 27875U 03040A 24279.54567156 .00000141 00000+0 00000+0 0 9993 2 27875 9.1723 53.4852 0001278 147.3117 34.4963 1.00276592 26775
UTC large
Height (km)
Speed (km/s)
/
Latitude / Longitude
Inclination (degrees)
Orbital Period (minutes)
Azimuth
Elevation
Range (km)
Doppler Factor

Next 0 passes for location: London (51.5072 / 0.1276)

Sorry there are no passes over London.